Regional Weather Roundup
Issued by NWS Kansas City/Pleasant Hill, MO

Home | Current Version | Previous Version | Text Only | Print | Product List | Glossary On
Versions: 1 2 3 4 5 6 7 8 9 10 11 12 13 14 15 16 17 18 19 20 21 22 23 24 25 26 27 28 29 30 31 32 33 34 35 36 37 38 39 40 41 42 43 44 45 46 47 48 49 50
000
ASUS43 KEAX 291910
RWREAX

WEATHER ROUNDUP FOR EASTERN KANSAS AND NORTHWEST MISSOURI
NATIONAL WEATHER SERVICE KANSAS CITY/PLEASANT HILL MO
200 PM CDT MON MAY 29 2017

KSZ040-057-103>105-MOZ028-029-037-043-292000-
...KANSAS CITY METROPOLITAN AREA...

CITY           SKY/WX    TMP DP  RH WIND       PRES   REMARKS
K.C. INTL      MOSUNNY   78  49  35 N10       30.00S
K.C. DOWNTOWN  SUNNY     81  49  32 NW13      29.98F
LEES SUMMIT    SUNNY     79  51  37 NW10      30.00F
OLATHE - IXD   SUNNY     78  52  40 N13       30.01F
OLATHE - OJC   SUNNY     79  50  36 N9        30.01F
LAWRENCE       SUNNY     79  53  40 W8G17     30.01S

$$

MOZ001>008-011>017-020>025-030>033-038>040-044>046-053-054-292000-
...NORTHERN AND CENTRAL MISSOURI...

CITY           SKY/WX    TMP DP  RH WIND       PRES   REMARKS
ST. JOSEPH     SUNNY     81  42  25 N16       29.99F
MOSBY            N/A     79  43  27 NW13      29.99S
WARRENSBURG    SUNNY     79  52  38 NW9       29.99S
WHITEMAN AFB   SUNNY     80  51  36 NW16G22   29.97F
CLINTON        SUNNY     81  54  39 NW9       30.00S
SEDALIA        SUNNY     82  55  39 NW15      29.99S
WARSAW         NOT AVBL
CHILLICOTHE      N/A     79  46  31 NW10G17   29.97F
KIRKSVILLE     SUNNY     79  46  31 NW10      29.96F

$$

MOZ041-047>049-056>058-063>065-088>090-097-292000-
...EASTERN AND SOUTHERN MISSOURI...

CITY           SKY/WX    TMP DP  RH WIND       PRES   REMARKS
ST. LOUIS INTL MOSUNNY   87  47  24 W14G20    29.92F
SPIRIT OF STL  MOSUNNY   85  49  28 W12       29.91F
COLUMBIA       SUNNY     82  55  39 W16       29.94F
JEFFERSON CITY SUNNY     83  56  39 W17G23    29.92F
ROLLA          MOSUNNY   79  57  46 SW17G23   29.96F
OSAGE BEACH    SUNNY     81  55  40 W13G21    29.97F
SPRINGFIELD    SUNNY     82  54  37 W15       30.02F
BRANSON        PTSUNNY   81  55  41 W6        30.05F
JOPLIN         SUNNY     84  56  38 W10       30.02F
WEST PLAINS    MOSUNNY   81  57  43 SW10G16   30.03F

$$

IAZ060-094-KSZ022-034>040-054-083-096-NEZ052-066-093-292000-
...KANSAS...SOUTHEAST NEBRASKA AND IOWA...

CITY           SKY/WX    TMP DP  RH WIND       PRES   REMARKS
TOPEKA         SUNNY     80  53  39 N10       30.01F
MANHATTAN      SUNNY     80  52  37 W7        30.03F
EMPORIA        SUNNY     80  51  36 VRB6      30.03F
CHANUTE        SUNNY     83  50  31 NW8       30.02F
WICHITA        MOSUNNY   83  48  29 N8        30.04F
OMAHA          MOSUNNY   75  37  25 W23G30    30.00F
LINCOLN        PTSUNNY   77  40  26 N20       30.04F
LAMONI         SUNNY     76  42  29 W16G29    29.97F
DES MOINES     MOSUNNY   75  41  29 W23G35    29.94F

$$




USA.gov is the U.S. government's official web portal to all federal, state and local government web resources and services.